sat.trackr.live / text

‹ back to catalog

STARLINK-34534

NORAD 64763 · 2025-147J

PAYLOAD ACTIVE UNKNOWN

§ Identity

Operator
Country
US
Launch date
2025-07-08
Launch site
AFETR
Launch vehicle
Mass (kg)
RCS (m²)

Purposes: comms

External: N2YO · Heavens-Above · Gunter

§ Orbital elements

Epoch: 2026-09-20T21:08:00.392640Z

Period
93.85 min
Inclination
53.1569°
Eccentricity
0.0001579
Mean motion
15.34407917 rev/d
Perigee alt
461.6 km
Apogee alt
463.8 km
Semi-major
6,840.8 km
B*
6.6999e-4
RAAN
52.0503°
Arg perigee
81.6810°
Mean anomaly
278.4372°
Rev number
6,869

§ Raw data

STARLINK-345341 64763U 25147J   26263.88056010  .00022334  00000+0  66999-3 0  99972 64763  53.1569  52.0503 0001579  81.6810 278.4372 15.34407917 68691

JSON: /api/v1/satellites/64763 · /tle

For live sub-satellite position, see the globe view (requires WebGL).

§ Visibility from observer

Set your observer location to see the next 7 days of passes ≥ 10°. The values pass through the URL so the page stays shareable.

No JS? Fill the form by hand. The geolocation button needs JavaScript.